Weather History for Madera, CA

Change the Weather History Date:

Sunday, December 30, 2012

  Actual Average Record
Temperature  
Mean Temperature 44 °F 44 °F  
Max Temperature 52 °F 52 °F 64 °F (2013)
Min Temperature 35 °F 36 °F 25 °F (2000)
Degree Days  
Heating Degree Days 21    
Month to date heating degree days 501  
Since 1 July heating degree days 869  
Cooling Degree Days 0    
Month to date cooling degree days 0  
Year to date cooling degree days 1737  
Moisture  
Dew Point 37 °F    
Average Humidity 80    
Maximum Humidity 100    
Minimum Humidity 59    
Precipitation  
Precipitation 0.00 in 0.07 in 0.45 in (2004)
Month to date precipitation 2.52 1.64  
Year to date precipitation 10.92 11.96  
Since 1 July precipitation 4.70 3.96  
Snow  
Snow 0.00 in - - ()
Month to date snowfall 0.0  
Since 1 July snowfall 0.0  
Snow Depth 0.00 in    
Sea Level Pressure  
Sea Level Pressure 30.07 in    
Wind  
Wind Speed 5 mph (WNW)    
Max Wind Speed 16 mph    
Max Gust Speed 21 mph    
Visibility 7 miles    
Events      
T = Trace of Precipitation, MM = Missing Value Source: NWS Daily Summary

Daily Weather History Graph

Daily Weather History Graph

Search for Another Location

Airport:

Trip Planner

Search our weather history database for the weather conditions in past years. The results will help you decide how hot, cold, wet, or windy it might be!

Date:

Astronomy

Dec. 30, 2012 Rise Set
Actual Time 7:13 AM PST 4:53 PM PST
Civil Twilight 6:44 AM PST 5:22 PM PST
Nautical Twilight 6:12 AM PST 5:54 PM PST
Astronomical Twilight 5:40 AM PST 6:26 PM PST
Moon 7:25 PM PST (12/30) 8:28 AM PST (12/30)
Length of Visible Light 10h 37m
Length of Day
9h 39m
Waning Gibbous, 95% of the Moon is Illuminated
Dec 30
Waning Gibbous
Jan 4
Last Quarter
Jan 11
New
Jan 18
First Quarter
Jan 26
Full

Hourly Weather History & Observations

Time (PST) Temp. Windchill Dew Point Humidity Pressure Visibility Wind Dir Wind Speed Gust Speed Precip Events Conditions
12:53 AM 37.9 °F 33.5 °F 36.0 °F 93% 30.07 in 5.0 mi NW 5.8 mph - N/A   Overcast
1:53 AM 41.0 °F - 39.9 °F 96% 30.08 in 6.0 mi Calm Calm - N/A   Overcast
2:53 AM 39.0 °F 36.8 °F 37.0 °F 93% 30.07 in 3.0 mi West 3.5 mph - N/A   Overcast
3:53 AM 39.9 °F 37.8 °F 37.9 °F 93% 30.06 in 5.0 mi WSW 3.5 mph - N/A   Mostly Cloudy
4:53 AM 37.9 °F 35.5 °F 37.0 °F 97% 30.04 in 4.0 mi SW 3.5 mph - N/A   Mostly Cloudy
5:50 AM 35.6 °F - 35.6 °F 100% 30.03 in 2.5 mi Calm Calm - N/A   Scattered Clouds
5:53 AM 36.0 °F - 35.1 °F 97% 30.04 in 3.0 mi Calm Calm - N/A   Partly Cloudy
6:27 AM 35.6 °F 32.8 °F 33.8 °F 93% 30.04 in 2.5 mi West 3.5 mph - N/A   Clear
6:51 AM 35.6 °F 31.7 °F 33.8 °F 93% 30.05 in 3.0 mi West 4.6 mph - N/A   Partly Cloudy
6:53 AM 36.0 °F 32.1 °F 34.0 °F 93% 30.05 in 3.0 mi West 4.6 mph - N/A   Partly Cloudy
7:35 AM 37.4 °F 34.9 °F 35.6 °F 93% 30.06 in 2.5 mi NW 3.5 mph - N/A   Overcast
7:49 AM 37.4 °F 34.9 °F 35.6 °F 93% 30.06 in 3.0 mi NW 3.5 mph - N/A   Overcast
7:53 AM 37.9 °F 35.5 °F 36.0 °F 93% 30.07 in 3.0 mi NW 3.5 mph - N/A   Overcast
8:53 AM 39.9 °F 35.1 °F 37.9 °F 93% 30.08 in 3.0 mi West 6.9 mph - N/A   Overcast
9:53 AM 43.0 °F 40.3 °F 39.9 °F 89% 30.09 in 6.0 mi WNW 4.6 mph - N/A   Overcast
10:53 AM 46.9 °F - 39.9 °F 77% 30.09 in 10.0 mi NW 8.1 mph - N/A   Mostly Cloudy
11:53 AM 50.0 °F - 39.9 °F 68% 30.06 in 10.0 mi NNW 8.1 mph - N/A   Clear
12:53 PM 51.1 °F - 39.0 °F 63% 30.04 in 10.0 mi WNW 10.4 mph - N/A   Clear
1:53 PM 52.0 °F - 39.0 °F 61% 30.02 in 10.0 mi NW 12.7 mph - N/A   Clear
2:53 PM 52.0 °F - 37.9 °F 59% 30.02 in 10.0 mi NW 16.1 mph 20.7 mph N/A   Clear
3:53 PM 50.0 °F - 37.9 °F 63% 30.02 in 10.0 mi NW 11.5 mph - N/A   Clear
4:53 PM 48.0 °F - 37.9 °F 68% 30.04 in 10.0 mi NW 8.1 mph - N/A   Clear
5:53 PM 45.0 °F 42.6 °F 37.9 °F 76% 30.06 in 10.0 mi WNW 4.6 mph - N/A   Clear
6:53 PM 42.1 °F 38.4 °F 37.0 °F 82% 30.08 in 10.0 mi WNW 5.8 mph - N/A   Clear
7:53 PM 42.1 °F - 37.0 °F 82% 30.09 in 10.0 mi Calm Calm - N/A   Clear
8:53 PM 39.9 °F 36.7 °F 35.1 °F 83% 30.11 in 10.0 mi WSW 4.6 mph - N/A   Partly Cloudy
9:53 PM 39.0 °F - 34.0 °F 82% 30.12 in 10.0 mi Calm Calm - N/A   Clear
10:53 PM 37.9 °F - 33.1 °F 83% 30.15 in 10.0 mi Calm Calm - N/A   Clear
11:53 PM 36.0 °F - 32.0 °F 86% 30.17 in 10.0 mi Calm Calm - N/A   Clear